DateTimeUTC,F1_A11,F1_S11,BsB_S11,BsG_S11,BsR_S11,BbsB_S11,BbsG_S11,BbsR_S11,BaB_A11,BaG_A11,BaR_A11,Tu_S11,T_S11,Uu_S11,U_S11,P_S11,T1_A11
2021-02-04T18:00:00Z,00000200,21000000,,,,,,,0000.04,-000.09,-000.22,16.8,23.8,00.6,00.4,0626.4,31.0
2021-02-04T18:01:00Z,00000200,21000000,,,,,,,-000.15,-000.14,0000.04,16.8,23.8,00.6,00.4,0626.4,31.0
2021-02-04T18:02:00Z,00000200,21000000,,,,,,,0000.04,-000.40,0000.01,16.8,23.8,00.6,00.4,0626.4,31.0
2021-02-04T18:03:00Z,00000200,61000000,,,,,,,0000.19,0000.47,0000.21,16.8,23.8,00.6,00.4,0626.4,31.0
2021-02-04T18:04:00Z,00000200,41000000,0000.12,-000.16,0000.08,0000.47,0000.10,0000.16,-000.04,0000.28,0000.28,16.9,23.7,00.9,00.6,0627.3,31.0
2021-02-04T18:05:00Z,00000200,01000000,0000.69,0000.01,0000.22,0000.09,0000.13,0000.18,-000.17,-000.70,-000.57,17.0,23.6,01.0,00.6,0627.5,31.0
2021-02-04T18:06:00Z,00000200,01000000,0000.12,-000.20,-000.21,0000.30,-000.07,-000.18,0000.16,0000.38,0000.23,17.0,23.6,00.9,00.6,0627.5,31.0
2021-02-04T18:07:00Z,00000200,01000000,0001.00,0000.05,-000.14,-000.07,-000.05,0000.03,-000.04,-000.01,0000.05,17.0,23.6,00.9,00.6,0627.5,31.0
2021-02-04T18:08:00Z,00000200,01000000,0000.45,0000.23,0000.05,0000.21,-000.02,-000.12,0000.07,0000.07,-000.12,17.0,23.5,01.0,00.6,0627.4,30.9
2021-02-04T18:09:00Z,00000200,01000000,0000.48,-000.09,0000.07,-000.65,0000.01,-000.06,-000.05,0000.32,0000.23,17.0,23.6,00.9,00.6,0627.4,31.0
2021-02-04T18:10:00Z,00000200,01000000,0000.12,0000.15,-000.01,0000.08,-000.46,0000.02,0000.19,-000.15,-000.12,17.0,23.5,01.0,00.7,0627.5,31.0
2021-02-04T18:11:00Z,00000200,01000000,0000.42,0000.29,0000.09,0000.17,0000.21,0000.22,-000.08,-000.07,0000.05,17.0,23.5,01.0,00.7,0627.6,31.0
2021-02-04T18:12:00Z,00000200,01000000,0000.33,-000.18,0000.19,0000.27,0000.01,0000.24,-000.42,-000.11,-000.08,16.9,23.5,01.0,00.6,0627.6,31.0
2021-02-04T18:13:00Z,00000200,01000000,0001.36,0000.18,0000.08,0000.29,0000.05,0000.22,0000.21,0000.02,-000.05,16.9,23.5,01.0,00.7,0627.7,31.0
2021-02-04T18:14:00Z,00000200,01000000,-000.36,-000.16,-000.01,0000.09,0000.09,0000.05,0000.22,-000.08,0000.14,16.9,23.5,00.9,00.6,0627.5,30.9
2021-02-04T18:15:00Z,00000200,01000000,0000.42,0000.06,-000.03,-000.13,0000.05,0000.24,-000.17,-000.32,-000.07,16.9,23.5,01.0,00.6,0627.8,31.0
2021-02-04T18:16:00Z,00000200,01000000,0000.11,0000.03,-000.16,0000.12,0000.11,0000.30,0000.13,0000.41,0000.11,17.0,23.5,01.0,00.7,0627.5,30.9
2021-02-04T18:17:00Z,00000200,01000000,0000.11,0000.36,-000.22,-000.34,-000.19,-000.02,0000.07,-000.08,0000.16,17.0,23.5,01.0,00.7,0627.8,30.9
2021-02-04T18:18:00Z,00000200,01000000,0000.59,0000.19,0000.07,-000.02,0000.05,0000.17,-000.13,0000.49,-000.17,17.1,23.5,01.0,00.7,0627.8,31.0
2021-02-04T18:19:00Z,00000200,01000000,0000.19,-000.03,-000.13,0000.06,0000.11,-000.34,0000.16,-000.49,-000.15,17.2,23.6,01.0,00.7,0627.7,31.0
2021-02-04T18:20:00Z,00000200,01000000,0001.27,-000.18,-000.04,-000.11,0000.17,-000.16,0000.04,0000.61,0000.38,17.2,23.6,01.0,00.7,0628.0,31.0
2021-02-04T18:21:00Z,00000200,01000000,0000.95,0000.09,-000.06,-000.24,0000.38,0000.03,-000.13,-000.72,-000.02,17.2,23.6,00.9,00.6,0627.9,31.0
2021-02-04T18:22:00Z,00000200,01000000,0000.30,-000.27,-000.06,-000.11,0000.13,0000.14,0000.18,0000.38,-000.15,17.2,23.6,00.9,00.6,0628.1,31.0
2021-02-04T18:23:00Z,00000200,01000000,0000.67,0000.11,0000.06,-000.17,0000.39,0000.07,-000.19,-000.19,-000.12,17.2,23.6,00.9,00.6,0628.1,31.0
2021-02-04T18:24:00Z,00000200,01000000,-000.00,0000.09,0000.13,0000.33,0000.08,0000.06,-000.01,0000.18,0000.01,17.1,23.6,00.9,00.6,0628.1,31.0
2021-02-04T18:25:00Z,00000200,01000000,0000.30,0000.13,0000.14,0000.01,0000.13,0000.16,-000.29,-000.47,-000.16,17.1,23.6,00.9,00.6,0628.2,31.0
2021-02-04T18:26:00Z,00000200,01000000,-000.27,0000.10,-000.31,-000.30,0000.14,-000.07,0000.16,0000.18,0000.25,17.1,23.6,00.9,00.6,0628.1,31.0
2021-02-04T18:27:00Z,00000200,01000000,-000.09,0000.00,0000.03,-000.40,0000.09,0000.04,0000.16,-000.06,0000.12,17.1,23.6,00.9,00.6,0628.2,31.0
2021-02-04T18:28:00Z,00000200,01000000,0000.32,-000.11,0000.12,-000.16,0000.04,-000.24,-000.27,-000.23,-000.53,17.1,23.6,00.9,00.6,0628.2,30.9
2021-02-04T18:29:00Z,00000200,01000000,0000.30,-000.20,-000.12,0000.16,0000.19,-000.25,0000.06,0000.39,0000.49,17.1,23.6,00.8,00.6,0628.2,31.0
2021-02-04T18:30:00Z,00000200,01000000,0000.14,-000.28,-000.12,0000.39,-000.15,0000.10,0000.09,-000.12,-000.44,17.1,23.6,00.8,00.5,0628.4,31.0
2021-02-04T18:31:00Z,00000200,01000000,-000.53,0000.21,-000.18,-000.24,-000.13,0000.06,-000.00,0000.11,-000.11,17.1,23.5,00.8,00.6,0628.5,31.0
2021-02-04T18:32:00Z,00000200,01000000,0000.44,0000.27,0000.13,0000.40,0000.21,-000.01,-000.04,-000.45,0000.48,17.1,23.5,00.8,00.5,0628.5,31.0
2021-02-04T18:33:00Z,00000200,01000000,0000.62,-000.04,0000.04,0000.06,-000.02,-000.05,0000.02,0000.19,0000.20,17.0,23.5,00.9,00.6,0628.5,31.0
2021-02-04T18:34:00Z,00000200,01000000,0000.61,0000.01,0000.22,0000.02,0000.46,0000.22,0000.01,0000.33,-000.21,17.0,23.5,00.8,00.5,0628.5,31.0
2021-02-04T18:35:00Z,00000200,01000000,0000.56,0000.01,0000.13,0000.66,0000.04,0000.15,-000.29,-000.07,-000.05,17.0,23.5,00.8,00.5,0628.6,31.0
2021-02-04T18:36:00Z,00000200,01000000,0000.90,0000.05,-000.06,0000.29,-000.09,0000.10,0000.34,-000.24,0000.08,17.0,23.5,00.9,00.6,0628.5,30.9
2021-02-04T18:37:00Z,00000200,01000000,-000.59,0000.17,-000.00,0000.25,0000.09,0000.21,-000.46,0000.13,-000.04,17.0,23.5,00.9,00.6,0628.5,30.9
2021-02-04T18:38:00Z,00000200,01000000,0000.88,0000.12,0000.04,0000.12,0000.07,0000.03,0000.25,0000.07,-000.12,17.0,23.5,00.8,00.5,0628.6,31.0
2021-02-04T18:39:00Z,00000200,01000000,0000.60,0000.21,-000.01,-000.12,-000.03,-000.11,-000.37,-000.33,-000.17,17.0,23.5,00.7,00.5,0628.5,31.0
2021-02-04T18:40:00Z,00000200,01000000,-000.15,-000.23,-000.02,-000.08,0000.03,0000.06,0000.36,0000.08,0000.05,17.0,23.5,00.7,00.5,0628.6,31.0
2021-02-04T18:41:00Z,00000200,01000000,0000.43,-000.21,-000.13,-000.21,-000.09,-000.24,-000.11,-000.11,0000.06,17.0,23.5,00.8,00.5,0628.6,31.0
2021-02-04T18:42:00Z,00000200,01000000,0000.03,-000.21,0000.11,0000.16,0000.03,0000.05,0000.01,0000.11,0000.22,17.0,23.5,00.8,00.5,0628.7,31.0
2021-02-04T18:43:00Z,00000200,01000000,0000.35,-000.22,0000.13,0000.03,-000.02,0000.12,-000.27,0000.25,-000.21,17.0,23.5,00.8,00.5,0628.7,31.0
2021-02-04T18:44:00Z,00000200,01000000,-000.01,0000.05,-000.19,0000.00,0000.02,-000.16,0000.35,-000.30,0000.25,17.0,23.5,00.8,00.5,0628.7,31.0
2021-02-04T18:45:00Z,00000200,01000000,0000.57,-000.29,0000.27,0000.15,0000.08,0000.10,-000.53,-000.13,-000.24,17.0,23.5,00.8,00.5,0628.7,31.0
2021-02-04T18:46:00Z,00000200,01000000,0000.08,-000.13,-000.16,-000.02,0000.06,0000.16,0000.68,-000.12,0000.21,17.0,23.5,00.7,00.5,0628.7,31.0
2021-02-04T18:47:00Z,00000200,01000000,0001.11,-000.03,-000.13,-000.23,-000.15,0000.06,-000.06,-000.05,0000.13,17.1,23.5,00.7,00.5,0628.6,30.9
2021-02-04T18:48:00Z,00000200,01000000,0001.14,0000.21,-000.10,-000.23,0000.07,0000.09,-000.16,0000.60,-000.21,17.2,23.6,00.7,00.5,0628.7,31.0
2021-02-04T18:49:00Z,00000200,01000000,0000.71,-000.07,0000.21,0000.17,0000.20,-000.17,-000.01,-000.44,0000.05,17.2,23.6,00.8,00.5,0628.7,31.0
2021-02-04T18:50:00Z,00000200,01000000,0000.22,-000.11,0000.11,0000.06,0000.18,-000.15,0000.26,0000.81,0000.23,17.3,23.6,00.7,00.5,0628.7,31.0
2021-02-04T18:51:00Z,00000200,01000000,0000.93,0000.04,-000.28,0000.28,0000.18,0000.14,-000.18,-000.49,-000.31,17.3,23.6,00.7,00.5,0628.7,31.0
2021-02-04T18:52:00Z,00000200,01000000,0000.25,0000.08,-000.06,0000.05,-000.15,0000.13,0000.19,0000.07,-000.19,17.3,23.7,00.7,00.4,0628.6,31.0
2021-02-04T18:53:00Z,00000200,01000000,0000.03,0000.25,-000.01,-000.22,0000.20,0000.14,0000.07,0000.09,0000.22,17.2,23.6,00.6,00.4,0628.8,31.0
2021-02-04T18:54:00Z,00000200,01000000,0000.10,-000.07,-000.10,0000.15,0000.09,-000.06,-000.10,0000.01,0000.42,17.2,23.6,00.7,00.4,0628.8,31.0
2021-02-04T18:55:00Z,00000200,01000000,0000.62,-000.25,-000.30,-000.04,0000.03,0000.06,-000.09,0000.01,-000.18,17.2,23.6,00.6,00.4,0628.8,31.0
2021-02-04T18:56:00Z,00000200,01000000,0000.33,0000.11,0000.13,-000.11,0000.02,-000.02,0000.22,0000.10,-000.43,17.2,23.6,00.6,00.4,0628.8,31.0
2021-02-04T18:57:00Z,00000200,41000000,,,,,,,-000.01,-000.17,-000.01,17.2,23.6,00.9,00.6,0628.9,31.0
2021-02-04T18:58:00Z,00000200,61000000,,,,,,,-000.05,-000.44,0000.29,16.9,23.7,00.7,00.4,0628.1,31.0
2021-02-04T18:59:00Z,00000200,21000000,,,,,,,-000.49,-000.04,-000.11,16.9,23.8,00.5,00.3,0628.1,31.0
